Location: Fishcreek Rd Observing Site
(41.1865°N, 81.4271°W)
Time: 18:31:27
(UTC-04:00)

Iridium 75 - Visible Passes

Search period start: 27 March 2017 00:00
Search period end: 06 April 2017 00:00
Orbit: 776 x 779 km, 86.4° (Epoch: 26 March)

Date Brightness Start Highest point End Pass type
(mag) Time Alt. Az. Time Alt. Az. Time Alt. Az.
27 Mar 9.3 04:52:55 10° E 04:53:59 11° ENE 04:55:04 10° ENE visible
27 Mar 6.0 06:28:40 10° S 06:33:52 85° W 06:39:07 10° N visible
28 Mar 6.9 05:55:23 10° SSE 06:00:25 52° E 06:05:29 10° NNE visible
29 Mar 8.1 05:22:40 10° SE 05:27:04 28° E 05:31:29 10° NNE visible
30 Mar 8.9 04:50:49 10° ESE 04:53:51 16° ENE 04:56:54 10° NE visible
30 Mar 6.1 06:28:53 10° SSW 06:34:00 59° W 06:39:10 10° N visible
31 Mar 6.2 05:55:17 10° S 06:00:28 76° E 06:05:42 10° N visible
01 Apr 7.3 05:22:13 10° SSE 05:27:04 41° E 05:31:56 10° NNE visible
02 Apr 8.3 04:49:48 10° SE 04:53:46 23° E 04:57:46 10° NNE visible
02 Apr 6.5 06:29:18 10° SSW 06:34:11 41° W 06:39:07 10° NNW visible
03 Apr 8.9 04:18:35 10° E 04:20:36 12° ENE 04:22:39 10° NE visible
03 Apr 6.0 05:55:23 10° S 06:00:35 75° W 06:05:49 10° N visible
04 Apr 6.6 05:22:00 10° SSE 05:27:06 59° E 05:32:14 10° N visible
05 Apr 7.7 04:49:09 10° SE 04:53:44 32° E 04:58:20 10° NNE visible
05 Apr 6.9 06:29:57 10° SW 06:34:25 28° W 06:38:55 10° NNW visible
